Regional Weather Roundup
Issued by NWS

Home | Current Version | Previous Version | Text Only | Print | Product List | Glossary On
Versions: 1 2 3 4 5 6 7 8 9 10 11 12 13 14 15 16 17 18 19 20 21 22 23 24 25 26 27 28
000
ASUS45 KREV 261410
RWRNV
NEVADA REGIONAL WEATHER ROUNDUP
NATIONAL WEATHER SERVICE RENO NV
700 AM PDT MON JUN 26 2017

NOTE: "FAIR" INDICATES FEW OR NO CLOUDS BELOW 12,000 FEET WITH NO
SIGNIFICANT WEATHER AND/OR OBSTRUCTIONS TO VISIBILITY.

NVZ001-003-004-261500-
WESTERN NEVADA

CITY           SKY/WX    TMP DP  RH WIND       PRES   REMARKS
RENO           MOSUNNY   71  48  43 CALM      30.11S
CARSON CITY    FAIR      66  46  48 CALM      30.14S
MINDEN         FAIR      59  48  67 SW3       30.14S
FALLON         SUNNY     71  46  40 S5        30.05F
LOVELOCK       SUNNY     71  44  37 CALM      30.05R
HAWTHORNE      SUNNY     73  50  43 CALM      30.07F
$$

NVZ002-CAZ072-073-261500-
NORTHERN AND CENTRAL SIERRA

CITY           SKY/WX    TMP DP  RH WIND       PRES   REMARKS
S. LAKE TAHOE  SUNNY     52  45  77 S3        30.24F
TRUCKEE        SUNNY     46  45  93 CALM      30.24F
SQUAW VLY 8000   N/A     57  37  47 SW6         N/A
SUSANVILLE     SUNNY     63  50  63 CALM      30.11S
MAMMOTH LAKES  FAIR      53  44  71 CALM      30.29F
BRIDGEPORT     FAIR      52  40  63 CALM      30.26S
$$

NVZ030-031-036-261500-
NORTHERN NEVADA

CITY           SKY/WX    TMP DP  RH WIND       PRES   REMARKS
ELKO           SUNNY     61  39  44 CALM      30.12F
WINNEMUCCA     SUNNY     65  41  41 CALM      30.06S
WENDOVER         N/A     75  32  20 CALM      30.09S
$$

NVZ035-037-261500-
CENTRAL NEVADA

CITY           SKY/WX    TMP DP  RH WIND       PRES   REMARKS
ELY            SUNNY     60  30  32 S6        30.23F
EUREKA           N/A     60  30  32 SW9       30.16R
$$

NVZ013-014-261500-
SOUTH CENTRAL NEVADA

CITY           SKY/WX    TMP DP  RH WIND       PRES   REMARKS
TONOPAH        SUNNY     68  26  20 N8        30.15S
$$

NVZ017-020-022-261500-
SOUTHERN NEVADA

CITY           SKY/WX    TMP DP  RH WIND       PRES   REMARKS
LAS VEGAS      SUNNY     92  21   7 S10       29.91R
N. LAS VEGAS   SUNNY     91  24   9 S12       29.90R
NELLIS AFB     SUNNY     92  28  10 S17       29.88R
HENDERSON      SUNNY     89  30  12 S9        29.96R
MERCURY        SUNNY     83  25  12 CALM      29.97S
$$




USA.gov is the U.S. government's official web portal to all federal, state and local government web resources and services.